SCP
0 0 0 0 0 0 0 0 0 0 0 0 0 0 0 0 0 0 0 0 0 -0 0 0 0 0 0 0 0 0 0 0 0 0 0 0 0 0 0 0 0 0 0 0 0 0 0 0 0 0 0 0 0 0
0 0 0 0 0 0 0 0 0 0 0 0 0 0 0 0 0 -0 0 0 0 -0 0 0 0 0 0 0 0 0 0 0 0 0 0 0 0 0 0 0 0 0 0 0 0 0 0 0 0 0 0 0 0 0
0 0 0 0 0 0 0 0 0 0 0 0 0 0 0 0 0 0 0 0 0 0 -0 0 0 0 0 0 0 0 0 0 0 0 0 0 0 0 0 0 0 0 0 0 0 0 0 0 0 0 0 0 0 0
0 0 0 0 0 0 0 0 0 0 0 0 0 0 0 0 0 0 0 0 0 0 0 0 0 0 0 0 0 0 0 0 0 0 0 0 0 0 0 0 0 0 0 0 0 0 0 0 0 0 0 0 0 0
0 0 0 0 0 0 0 0 0 0 0 0 0 0 0 0 0 0 0 0 0 0 0 0 0 0 0 0 0 0 0 0 0 0 0 0 0 0 0 0 0 0 0 0 0 -0 0 0 0 0 0 0 0 0
0 0 0 0 0 0 0 0 0 0 0 0 0 0 0 0 0 -0 0 0 0 0 0 0 0 0 0 0 0 0 0 0 0 0 0 0 0 0 0 0 0 0 0 0 0 0 0 0 0 0 0 0 0 0
0 0 0 0 0 0 0 0 0 0 0 0 0 0 0 0 -0 0 0 0 0 0 0 0 0 0 0 0 0 0 0 0 0 0 0 0 0 0 0 0 0 0 0 0 0 0 0 0 0 0 0 0 0 0
0 0 0 0 0 0 0 0 0 0 0 0 0 0 0 0 0 0 0 -0 0 0 0 0 0 0 0 0 0 0 0 0 0 0 0 0 0 0 0 0 0 0 0 0 0 -0 0 0 0 0 0 0 0 0
0 0 0 0 0 0 0 0 0 0 0 0 0 0 0 0 0 0 0 0 0 0 0 0 0 0 0 0 0 0 0 0 0 0 0 0 0 0 0 0 -0 -0 0 0 -0 0 0 0 0 0 0 0 0 0
0 0 0 0 0 0 0 0 0 0 0 0 0 0 0 0 0 0 0 0 0 0 0 0 0 0 0 0 0 0 0 0 0 0 0 0 0 0 0 -0 -0 0 -0 -0 0 -0 -0 0 0 0 0 0 0 0
0 0 0 0 0 0 0 0 0 0 0 0 0 0 0 0 0 0 0 0 0 0 0 0 0 0 0 0 0 0 0 0 0 0 0 0 0 0 0 -0 -0 -0 -0 -0 0 0 0 0 0 0 0 0 0 0
0 0 0 0 0 0 0 0 0 0 0 0 0 0 0 0 0 0 0 0 0 0 0 0 0 0 0 0 0 0 0 0 0 0 0 0 0 0 -0 -0 -0 0 -0 -0 -0 -0 0 0 0 0 0 0 0 0
0 0 0 0 0 0 0 0 0 0 0 0 0 0 0 0 0 0 0 0 0 0 0 0 0 0 0 0 0 0 0 0 0 0 0 0 0 0 -0 -0 0 -0 -0 -0 -0 -0 0 0 0 0 0 0 0 0
0 0 0 0 0 0 0 0 0 0 0 0 0 0 0 0 0 0 0 0 0 0 0 0 0 0 0 0 0 0 0 0 0 0 0 0 0 -0 -0 -0 -0 -0 -0 -0 -0 -0 -0 0 0 0 0 0 0 0
0 0 0 0 0 0 0 0 0 0 0 0 0 0 0 0 0 0 0 0 0 0 0 0 0 0 0 0 0 0 0 0 0 0 0 0 0 -0 -0 -0 -0 -0 -0 -0 -0 -0 -0 -0 0 0 0 0 0 0
-0 0 0 0 0 0 0 0 0 0 0 0 0 0 0 0 0 -0 0 0 -0 0 0 0 0 0 0 0 0 0 0 0 0 0 0 0 0 -0 -0 -0 -0 -0 -0 -0 -0 -0 -0 -0 0 0 -0 -0 0 0
0 0 0 0 0 0 0 0 0 0 0 0 0 0 0 0 0 0 -0 -0 -0 -0 0 0 0 0 0 0 0 0 0 0 0 0 0 0 0 0 0 0 0 0 -0 -0 -0 -0 -0 -0 -0 -0 -0 -0 -0 -0
0 0 0 0 0 0 0 0 0 0 0 0 0 0 0 -0 0 -0 -0 -0 -0 -0 0 0 0 0 0 0 0 0 0 0 0 0 0 0 0 0 0 0 0 0 -0 -0 -0 -0 -0 -0 -0 -0 -0 -0 -0 -0
0 0 0 0 0 0 0 0 0 0 0 0 0 0 0 -0 -0 -0 -0 -0 -0 -0 -0 0 0 0 0 0 0 0 0 0 0 0 0 0 0 0 0 0 0 0 -0 -0 -0 -0 -0 -0 -0 -0 -0 -0 -0 -0
0 0 0 0 0 0 0 0 0 0 0 0 0 0 0 -0 -0 -0 -0 -0 -0 -0 -0 -0 0 0 0 0 0 -0 -0 0 0 0 0 0 0 0 0 0 0 0 -0 -0 -0 -0 -0 -0 -0 -0 -0 0 0 0
0 0 0 0 0 0 0 0 0 0 0 0 0 0 -0 -0 -0 -0 -0 -0 -0 -0 -0 0 0 0 0 0 0 -0 -0 0 0 0 0 0 0 0 0 0 0 0 0 -0 -0 -0 -0 -0 -0 -0 -0 -0 0 0
0 0 0 0 0 0 0 0 0 0 0 0 0 -0 -0 -0 -0 -0 -0 -0 -0 -0 0 0 0 -0 0 0 0 0 -0 0 0 0 0 0 0 0 0 0 0 0 0 -0 -0 -0 -0 -0 0 0 0 -0 -0 -0
0 0 0 0 0 0 0 0 0 0 0 -0 -0 -0 -0 -0 -0 -0 -0 -0 -0 -0 0 0 0 0 0 0 0 -0 -0 0 0 0 0 0 0 0 0 0 0 0 0 0 -0 -0 -0 -0 -0 0 0 0 -0 -0
0 0 0 0 0 0 0 0 0 0 0 0 -0 -0 -0 -0 0 -0 -0 -0 -0 -0 -0 0 0 0 -0 -0 0 -0 -0 0 0 0 0 0 0 0 0 0 0 0 0 0 0 0 0 0 0 -0 -0 0 0 0
0 0 0 0 0 0 0 0 0 0 0 -0 -0 -0 -0 -0 0 -0 -0 -0 -0 -0 -0 0 -0 0 -0 -0 -0 -0 0 0 0 0 0 0 0 0 0 0 0 0 0 0 0 0 0 0 0 -0 -0 -0 -0 -0
0 0 0 0 0 0 0 0 0 -0 -0 -0 -0 -0 0 0 -0 -0 -0 -0 -0 -0 0 0 0 0 0 0 0 0 0 0 0 0 0 0 0 0 0 0 0 0 0 0 0 0 0 0 0 -0 -0 -0 -0 -0
0 0 0 0 0 0 0 0 0 -0 -0 -0 0 0 -0 0 -0 -0 0 0 0 0 0 0 0 0 0 0 0 0 0 0 0 0 0 0 0 0 0 0 0 0 0 0 0 0 0 0 -0 -0 0 0 0 -0
0 0 0 0 0 0 0 0 0 -0 -0 -0 -0 -0 0 0 0 0 0 0 0 0 0 0 0 0 0 0 0 0 0 0 0 0 0 0 0 0 0 0 0 0 0 0 0 0 0 0 0 0 0 0 0 0
0 0 0 0 0 0 0 -0 -0 -0 -0 -0 -0 -0 -0 -0 -0 0 0 0 0 0 0 0 -0 0 0 0 0 0 0 0 0 0 0 0 0 0 0 0 0 0 0 0 0 0 0 0 0 0 0 0 0 0
0 0 0 0 0 0 0 0 -0 -0 -0 -0 -0 -0 -0 0 0 0 0 0 0 0 0 0 0 0 0 0 0 0 0 0 0 0 0 0 0 0 0 0 0 0 0 0 0 0 0 0 0 0 0 0 0 0
0 0 0 0 -0 -0 -0 -0 -0 -0 -0 -0 -0 0 0 0 0 -0 0 0 0 0 0 0 0 0 0 0 0 0 0 0 0 0 0 0 0 0 0 0 0 0 0 0 0 0 0 0 0 0 0 0 0 0
0 0 0 -0 -0 -0 -0 -0 -0 -0 -0 -0 0 0 0 0 0 -0 0 0 0 0 0 0 0 0 0 0 0 0 0 0 0 0 0 0 0 0 0 0 0 0 0 0 0 0 0 0 0 0 0 0 0 0
0 0 -0 -0 -0 -0 -0 -0 -0 -0 -0 -0 0 0 0 0 0 0 0 0 0 0 0 0 0 0 0 0 0 0 0 0 0 0 0 0 0 0 0 0 0 0 0 0 0 0 0 0 0 0 0 0 0 0
Wind_Speed_500mb
30 28 26 26 28 26 24 22 21 20 21 20 18 20 22 25 32 35 22 19 28 12 39 19 13 25 33 8 4 9 7 5 7 7 5 5 5 6 6 5 8 8 8 4 4 6 5 6 11 3 6 20 20 24
33 29 29 28 29 26 24 23 23 22 21 21 18 19 21 24 30 36 34 26 23 22 29 49 46 22 23 20 11 5 3 7 9 8 2 6 4 3 6 4 5 3 8 8 7 8 8 15 20 17 19 28 24 23
31 29 30 31 32 28 25 24 23 22 21 21 18 18 20 24 28 36 40 38 28 14 32 23 13 17 3 4 8 3 2 6 7 7 13 5 7 6 6 5 7 7 6 8 7 11 17 37 35 36 35 18 15 16
30 28 27 29 32 29 26 24 23 22 21 21 18 18 20 25 28 34 43 38 21 12 9 14 19 11 10 8 12 15 4 6 14 7 8 5 6 6 5 6 7 6 9 10 8 17 39 32 36 31 25 26 26 26
30 29 27 27 27 29 26 24 23 22 21 21 18 18 21 26 29 33 30 20 7 6 7 22 29 12 5 5 6 11 14 13 7 6 6 3 8 8 3 5 2 10 12 8 8 32 28 28 28 25 30 31 27 26
34 30 27 28 27 28 26 25 23 22 20 20 18 17 22 27 28 33 6 12 4 8 10 7 16 7 4 8 10 14 16 11 7 8 8 7 7 5 6 3 0 7 17 28 26 27 43 42 32 25 33 29 25 24
36 30 28 28 28 28 27 25 23 22 20 20 18 18 23 27 28 20 15 28 23 13 8 9 11 8 4 11 10 11 11 9 7 9 5 8 6 7 5 5 16 23 34 58 49 59 47 41 35 31 28 28 25 27
38 34 30 28 28 28 27 25 23 21 20 19 19 20 24 29 32 28 21 13 11 12 9 5 6 10 8 6 6 7 7 7 7 8 7 6 9 4 4 7 31 45 63 58 60 33 51 44 40 33 27 28 30 26
40 37 34 32 30 30 28 25 23 20 18 20 18 20 25 24 11 7 7 14 13 13 8 7 4 5 6 6 7 5 5 5 3 5 3 8 1 4 14 47 62 67 53 62 43 53 52 47 42 35 31 27 25 24
37 37 35 35 33 33 29 26 24 19 20 17 15 7 7 5 15 14 6 5 11 11 10 8 10 6 7 5 4 5 4 4 4 4 12 4 5 5 43 60 66 56 74 62 69 61 56 51 44 37 29 24 23 24
43 39 34 34 34 33 30 28 24 26 24 18 7 8 11 15 7 4 7 8 10 6 12 13 13 6 9 5 5 2 4 1 4 6 8 2 5 12 58 67 70 63 67 52 43 50 49 49 49 43 34 28 27 25
45 43 38 35 35 34 33 31 32 38 17 13 7 11 10 3 3 5 6 5 7 6 10 10 14 20 7 10 6 6 5 3 6 13 6 5 8 61 75 78 66 73 65 58 51 55 51 46 44 41 36 32 30 28
47 44 41 37 37 38 35 34 39 39 29 15 8 6 4 2 4 8 7 4 4 4 6 9 8 17 10 9 7 5 5 7 20 3 7 9 33 82 86 84 77 74 62 54 58 51 49 47 45 42 40 35 34 31
47 44 41 38 39 40 37 40 46 40 26 9 10 6 8 6 8 5 6 8 17 19 35 31 14 11 10 6 6 7 3 8 3 4 10 7 59 86 94 86 88 83 70 62 63 56 53 51 48 43 39 37 34 32
44 42 39 40 43 43 43 48 49 50 14 12 11 8 11 14 9 17 20 20 23 28 42 19 5 9 5 7 5 7 5 8 10 10 8 35 83 97 102 95 89 85 75 70 67 61 57 54 51 47 43 38 35 32
39 35 44 45 46 45 49 53 56 42 14 10 11 5 12 6 6 1 12 24 27 48 37 9 6 5 10 8 8 12 12 11 8 7 14 52 89 103 108 99 92 88 78 75 71 66 62 60 56 49 45 43 39 35
38 47 49 49 49 49 59 67 35 12 10 8 12 20 26 20 17 17 6 21 29 32 7 11 7 13 3 8 7 9 10 7 9 10 19 63 102 105 109 102 96 90 84 80 74 69 65 62 57 54 52 48 43 39
51 50 42 53 60 83 68 34 17 15 12 20 12 15 26 24 12 12 15 26 25 15 13 7 15 7 8 14 6 9 30 23 15 11 22 56 85 100 107 106 100 93 88 83 75 72 70 71 67 61 53 50 47 45
46 48 45 66 77 51 11 15 12 11 18 10 24 30 25 27 37 33 30 29 28 21 10 12 11 7 8 11 17 29 41 36 17 13 28 53 88 100 104 103 98 94 88 85 79 76 75 75 69 62 58 57 53 49
42 40 63 90 73 21 11 10 19 8 12 14 17 18 17 23 35 41 34 20 25 11 9 9 9 11 16 30 30 35 27 19 28 28 41 60 83 97 105 107 102 94 89 86 79 76 75 76 72 65 62 59 56 52
45 50 75 58 34 16 9 15 14 14 9 11 10 20 14 24 29 37 34 34 31 13 15 28 58 59 45 43 30 24 30 31 34 42 54 73 84 98 102 104 101 98 97 92 86 83 81 84 78 72 66 60 54 48
44 79 61 40 10 8 8 16 10 12 7 8 8 11 11 12 27 31 25 34 19 31 40 65 73 74 58 46 34 19 22 21 38 41 43 65 86 95 103 109 107 104 102 97 91 85 81 83 79 73 68 61 55 51
88 69 25 12 8 9 7 16 10 11 5 6 4 5 10 11 13 18 16 27 35 57 64 66 63 64 67 51 33 15 19 11 32 38 44 63 78 91 102 108 109 106 104 100 92 83 81 82 82 77 70 64 59 55
62 17 10 12 8 9 11 8 7 6 6 3 4 6 8 13 16 18 10 22 41 45 51 54 52 56 63 53 51 36 20 13 22 32 43 59 73 84 97 105 105 101 96 95 94 86 82 82 84 81 75 69 66 62
18 9 12 7 6 9 8 6 9 9 7 10 6 7 8 10 7 8 8 17 47 49 52 51 50 59 74 70 54 40 25 22 27 37 45 53 63 77 86 94 99 98 94 97 97 93 89 86 87 86 82 76 72 69
7 12 16 18 21 12 15 9 11 14 8 8 11 13 9 7 11 11 8 41 59 57 59 66 62 67 77 81 65 58 50 33 32 37 45 56 63 71 89 98 101 102 99 92 91 92 90 88 87 88 87 82 77 73
8 11 18 18 17 13 9 12 10 6 9 10 7 7 5 11 11 10 9 47 31 36 63 58 67 72 72 70 67 58 52 50 31 26 34 47 49 58 70 90 105 104 98 96 90 88 88 89 89 89 90 88 84 81
7 19 14 29 16 15 6 2 4 7 9 15 10 8 10 8 8 8 24 75 79 63 45 52 68 68 72 71 67 54 48 44 42 39 34 38 57 63 65 65 75 91 89 91 88 83 82 83 86 89 91 93 91 87
9 16 22 10 9 11 17 17 13 15 20 27 10 16 18 34 62 99 103 92 91 91 71 45 60 71 72 76 78 76 67 56 55 54 53 52 57 64 65 64 63 70 77 81 79 76 74 76 78 80 81 83 87 87
14 31 15 14 12 12 19 23 17 26 34 43 48 56 80 104 107 105 106 107 101 92 66 50 54 68 79 78 74 70 69 66 62 58 52 54 56 54 59 63 65 63 63 65 69 72 72 72 71 73 74 74 72 71
15 31 12 17 12 32 46 50 57 63 65 73 74 67 77 85 117 120 91 69 58 61 57 51 59 67 73 82 83 82 83 80 73 67 59 45 39 45 53 54 57 57 56 57 59 61 63 68 71 72 73 73 72 70
28 29 17 7 17 50 47 47 50 50 58 57 63 64 69 57 54 65 48 31 42 51 53 53 63 69 68 72 76 76 76 72 68 63 57 47 41 36 42 50 55 56 54 53 52 53 53 56 61 64 64 63 61 60
39 39 42 30 15 12 22 24 13 16 29 41 59 65 59 45 24 36 36 33 28 31 38 46 48 47 47 54 63 69 64 55 51 49 49 43 39 37 41 46 55 55 54 52 50 49 49 48 48 49 49 47 44 43
Wind_Direction_500mb
263 254 260 248 250 257 259 265 270 267 261 267 283 300 321 335 336 346 1 326 329 298 296 291 304 312 317 300 109 145 84 4 51 69 114 176 123 201 93 183 171 150 131 183 85 71 331 26 68 335 163 71 108 93
263 246 244 243 245 251 256 262 263 269 256 261 275 293 313 329 332 337 345 345 310 276 286 299 295 308 306 266 268 168 164 160 157 93 87 118 111 84 140 196 28 55 168 158 152 199 248 83 105 106 130 109 112 120
261 243 243 242 242 248 255 261 262 263 258 256 270 286 306 320 328 332 336 340 334 294 303 296 301 336 303 204 197 206 160 153 145 116 145 145 105 125 145 228 104 355 123 91 88 5 76 101 103 108 108 100 116 110
243 232 243 244 241 245 252 259 261 260 257 253 263 281 299 312 321 328 328 325 308 301 285 298 286 324 281 225 215 217 283 158 138 124 95 108 115 174 182 150 127 179 113 120 68 103 92 100 114 125 105 106 107 105
224 238 245 244 241 241 248 254 257 259 255 251 257 277 294 305 318 327 327 332 268 276 309 293 292 33 181 224 177 183 185 173 150 94 69 110 127 111 46 92 88 175 160 142 198 173 121 139 141 128 114 113 113 111
230 238 243 242 242 240 244 249 253 257 254 250 254 272 289 302 320 337 337 19 350 308 303 310 303 324 113 173 155 145 162 155 119 102 104 109 121 115 99 116 267 161 163 133 134 152 135 141 136 129 120 120 114 107
232 237 241 242 241 241 240 246 250 253 250 247 254 267 283 299 312 324 299 297 301 285 281 286 296 314 146 160 142 132 130 125 112 105 91 131 122 124 101 141 156 148 140 139 139 136 125 143 135 138 129 125 120 112
232 237 241 243 241 240 237 242 246 247 244 244 255 268 283 293 300 303 295 292 285 268 276 284 275 301 168 139 120 128 124 118 68 104 119 114 121 89 100 142 149 144 143 142 146 151 142 142 139 140 136 135 126 118
232 236 239 241 240 236 235 237 238 237 236 239 256 279 293 288 287 301 298 277 264 231 296 285 295 238 173 108 109 106 113 63 109 103 140 127 356 195 177 148 148 152 150 151 146 142 144 143 145 145 145 143 134 129
230 233 236 236 236 231 231 229 226 220 216 233 261 276 268 288 302 288 294 234 211 209 227 257 270 266 182 135 88 111 60 131 128 243 136 95 228 247 172 161 158 157 156 155 145 147 152 151 155 156 152 144 133 129
230 231 235 233 231 226 224 218 209 201 199 217 226 244 280 303 300 286 272 231 189 224 208 247 244 279 211 128 149 167 164 129 138 242 133 188 275 186 166 163 162 164 162 165 166 160 162 157 156 156 157 151 143 133
228 229 232 231 227 222 219 209 204 199 189 193 235 279 292 264 258 274 250 226 226 228 203 217 229 215 225 197 122 173 123 79 224 146 100 226 236 169 168 169 169 169 169 171 169 163 163 163 159 157 155 149 144 136
225 227 228 229 222 217 211 203 205 197 197 192 224 260 319 109 238 231 220 239 216 227 328 270 237 184 197 191 100 119 138 214 131 110 219 224 167 169 171 171 172 172 173 170 167 166 166 166 165 165 157 152 144 138
222 226 228 224 218 211 202 200 195 192 164 212 202 279 170 220 239 229 0 342 321 314 325 323 263 194 171 134 143 145 174 118 170 234 232 204 172 170 175 176 176 176 175 171 167 171 172 172 169 172 166 159 151 143
221 223 221 218 208 200 197 192 191 188 148 216 191 221 208 236 281 319 326 324 337 340 340 331 253 251 172 140 181 116 130 231 212 226 227 182 173 173 176 180 181 178 176 173 171 176 177 175 176 175 173 169 164 160
211 215 214 200 195 194 189 189 192 176 188 218 220 250 239 294 279 139 358 336 340 337 325 221 242 269 208 152 143 203 162 219 244 218 225 176 172 178 180 183 183 180 177 176 177 180 179 180 182 178 176 178 177 175
202 213 202 194 190 188 188 180 167 139 189 232 237 234 244 273 259 276 320 329 337 347 320 313 221 231 130 150 196 179 205 213 223 232 199 184 180 180 183 184 182 181 179 179 180 184 182 182 184 184 183 182 181 181
212 205 206 191 185 170 157 163 151 183 210 229 235 242 235 242 219 241 282 305 313 330 328 330 305 256 216 158 220 227 242 245 258 274 201 186 182 183 185 185 183 182 181 181 184 187 187 186 190 190 186 185 186 186
208 200 196 195 187 153 126 151 155 184 218 221 242 250 256 265 272 278 282 288 281 278 274 268 249 241 238 220 210 220 236 249 234 209 189 189 186 186 186 187 185 184 184 184 186 192 193 193 194 192 190 192 192 193
203 215 195 179 155 136 121 134 176 194 202 220 227 235 237 257 279 290 289 250 247 210 214 228 247 242 256 261 279 289 291 266 224 174 178 185 190 189 189 189 187 187 188 189 191 194 196 198 201 199 198 200 197 198
171 174 157 153 139 118 133 158 171 200 202 225 241 224 250 266 268 269 257 239 211 229 211 245 270 265 283 300 289 283 275 256 241 230 203 187 192 194 192 193 192 190 191 191 193 197 201 202 201 202 203 204 205 206
168 169 152 156 118 124 130 175 160 167 208 232 233 214 241 250 253 250 242 197 223 224 224 246 263 268 275 292 287 322 315 256 229 223 206 193 185 190 194 195 193 193 195 196 197 201 204 205 205 207 206 207 209 210
161 153 131 109 127 149 147 177 180 199 183 212 200 228 230 229 246 253 216 208 219 231 242 252 265 270 266 266 283 314 324 264 222 221 209 199 195 194 196 198 198 198 197 200 202 204 208 208 208 210 210 210 212 213
157 126 109 140 146 158 159 164 204 235 219 217 185 252 245 237 254 231 229 207 220 232 238 245 250 245 250 252 253 268 302 273 225 221 210 199 195 195 200 201 202 205 206 204 203 206 211 213 211 212 214 214 216 217
111 144 146 127 151 115 155 182 195 197 228 203 228 257 257 247 242 230 220 231 232 237 240 236 237 226 233 240 246 247 255 259 236 220 213 212 207 198 199 204 206 208 209 206 207 209 210 213 214 214 215 217 219 221
129 168 166 161 162 168 188 188 203 203 183 203 232 240 257 244 215 240 236 234 234 233 232 227 227 227 227 233 239 242 239 251 236 229 224 217 216 213 206 202 205 207 210 212 214 212 213 216 217 217 218 220 222 225
134 191 181 172 171 171 203 237 221 181 186 205 236 218 204 243 232 223 48 25 339 267 235 230 224 223 225 226 229 240 238 237 245 252 243 229 231 229 225 217 212 214 211 210 213 215 218 218 220 221 222 224 226 229
140 159 153 174 180 191 173 188 181 217 218 229 222 190 281 228 238 334 314 324 329 332 315 248 230 225 225 228 224 222 221 217 218 223 230 230 229 228 229 228 228 224 219 218 217 217 220 223 225 226 227 227 229 232
158 169 163 160 151 188 211 199 214 221 242 259 260 277 279 277 294 303 303 305 308 311 308 287 242 228 229 229 229 228 230 224 215 210 216 217 215 220 226 225 224 223 223 222 222 224 226 226 226 230 234 237 238 239
190 174 170 169 158 212 224 220 240 255 267 270 271 272 275 279 287 296 297 295 291 290 287 284 255 238 229 224 224 224 225 229 234 228 227 234 235 226 217 220 219 220 219 219 220 221 223 224 226 228 232 236 240 244
192 184 206 209 222 239 244 255 267 274 278 278 275 264 267 287 293 290 289 282 280 275 261 247 232 226 227 227 224 220 220 223 227 232 236 243 245 235 219 213 213 212 212 212 214 219 222 223 223 224 227 231 235 239
191 201 196 196 245 261 265 263 266 270 269 267 265 268 275 278 279 288 286 280 252 247 229 219 216 219 221 225 228 229 231 233 232 231 230 228 231 231 220 212 207 204 203 206 209 213 216 220 224 227 231 235 240 244
210 218 228 238 246 240 264 267 272 275 268 268 270 264 256 246 247 257 275 274 264 236 220 211 207 212 221 224 221 221 225 227 229 233 228 218 214 216 212 210 206 201 201 202 204 207 211 217 222 225 230 236 242 246
Wind_Speed_850mb
30 28 26 26 28 26 24 22 21 20 21 20 18 20 22 25 32 35 22 19 28 12 39 19 13 25 33 8 4 9 7 5 7 7 5 5 5 6 6 5 8 8 8 4 4 6 5 6 11 3 6 20 20 24
33 29 29 28 29 26 24 23 23 22 21 21 18 19 21 24 30 36 34 26 23 22 29 49 46 22 23 20 11 5 3 7 9 8 2 6 4 3 6 4 5 3 8 8 7 8 8 15 20 17 19 28 24 23
31 29 30 31 32 28 25 24 23 22 21 21 18 18 20 24 28 36 40 38 28 14 32 23 13 17 3 4 8 3 2 6 7 7 13 5 7 6 6 5 7 7 6 8 7 11 17 37 35 36 35 18 15 16
30 28 27 29 32 29 26 24 23 22 21 21 18 18 20 25 28 34 43 38 21 12 9 14 19 11 10 8 12 15 4 6 14 7 8 5 6 6 5 6 7 6 9 10 8 17 39 32 36 31 25 26 26 26
30 29 27 27 27 29 26 24 23 22 21 21 18 18 21 26 29 33 30 20 7 6 7 22 29 12 5 5 6 11 14 13 7 6 6 3 8 8 3 5 2 10 12 8 8 32 28 28 28 25 30 31 27 26
34 30 27 28 27 28 26 25 23 22 20 20 18 17 22 27 28 33 6 12 4 8 10 7 16 7 4 8 10 14 16 11 7 8 8 7 7 5 6 3 0 7 17 28 26 27 43 42 32 25 33 29 25 24
36 30 28 28 28 28 27 25 23 22 20 20 18 18 23 27 28 20 15 28 23 13 8 9 11 8 4 11 10 11 11 9 7 9 5 8 6 7 5 5 16 23 34 58 49 59 47 41 35 31 28 28 25 27
38 34 30 28 28 28 27 25 23 21 20 19 19 20 24 29 32 28 21 13 11 12 9 5 6 10 8 6 6 7 7 7 7 8 7 6 9 4 4 7 31 45 63 58 60 33 51 44 40 33 27 28 30 26
40 37 34 32 30 30 28 25 23 20 18 20 18 20 25 24 11 7 7 14 13 13 8 7 4 5 6 6 7 5 5 5 3 5 3 8 1 4 14 47 62 67 53 62 43 53 52 47 42 35 31 27 25 24
37 37 35 35 33 33 29 26 24 19 20 17 15 7 7 5 15 14 6 5 11 11 10 8 10 6 7 5 4 5 4 4 4 4 12 4 5 5 43 60 66 56 74 62 69 61 56 51 44 37 29 24 23 24
43 39 34 34 34 33 30 28 24 26 24 18 7 8 11 15 7 4 7 8 10 6 12 13 13 6 9 5 5 2 4 1 4 6 8 2 5 12 58 67 70 63 67 52 43 50 49 49 49 43 34 28 27 25
45 43 38 35 35 34 33 31 32 38 17 13 7 11 10 3 3 5 6 5 7 6 10 10 14 20 7 10 6 6 5 3 6 13 6 5 8 61 75 78 66 73 65 58 51 55 51 46 44 41 36 32 30 28
47 44 41 37 37 38 35 34 39 39 29 15 8 6 4 2 4 8 7 4 4 4 6 9 8 17 10 9 7 5 5 7 20 3 7 9 33 82 86 84 77 74 62 54 58 51 49 47 45 42 40 35 34 31
47 44 41 38 39 40 37 40 46 40 26 9 10 6 8 6 8 5 6 8 17 19 35 31 14 11 10 6 6 7 3 8 3 4 10 7 59 86 94 86 88 83 70 62 63 56 53 51 48 43 39 37 34 32
44 42 39 40 43 43 43 48 49 50 14 12 11 8 11 14 9 17 20 20 23 28 42 19 5 9 5 7 5 7 5 8 10 10 8 35 83 97 102 95 89 85 75 70 67 61 57 54 51 47 43 38 35 32
39 35 44 45 46 45 49 53 56 42 14 10 11 5 12 6 6 1 12 24 27 48 37 9 6 5 10 8 8 12 12 11 8 7 14 52 89 103 108 99 92 88 78 75 71 66 62 60 56 49 45 43 39 35
38 47 49 49 49 49 59 67 35 12 10 8 12 20 26 20 17 17 6 21 29 32 7 11 7 13 3 8 7 9 10 7 9 10 19 63 102 105 109 102 96 90 84 80 74 69 65 62 57 54 52 48 43 39
51 50 42 53 60 83 68 34 17 15 12 20 12 15 26 24 12 12 15 26 25 15 13 7 15 7 8 14 6 9 30 23 15 11 22 56 85 100 107 106 100 93 88 83 75 72 70 71 67 61 53 50 47 45
46 48 45 66 77 51 11 15 12 11 18 10 24 30 25 27 37 33 30 29 28 21 10 12 11 7 8 11 17 29 41 36 17 13 28 53 88 100 104 103 98 94 88 85 79 76 75 75 69 62 58 57 53 49
42 40 63 90 73 21 11 10 19 8 12 14 17 18 17 23 35 41 34 20 25 11 9 9 9 11 16 30 30 35 27 19 28 28 41 60 83 97 105 107 102 94 89 86 79 76 75 76 72 65 62 59 56 52
45 50 75 58 34 16 9 15 14 14 9 11 10 20 14 24 29 37 34 34 31 13 15 28 58 59 45 43 30 24 30 31 34 42 54 73 84 98 102 104 101 98 97 92 86 83 81 84 78 72 66 60 54 48
44 79 61 40 10 8 8 16 10 12 7 8 8 11 11 12 27 31 25 34 19 31 40 65 73 74 58 46 34 19 22 21 38 41 43 65 86 95 103 109 107 104 102 97 91 85 81 83 79 73 68 61 55 51
88 69 25 12 8 9 7 16 10 11 5 6 4 5 10 11 13 18 16 27 35 57 64 66 63 64 67 51 33 15 19 11 32 38 44 63 78 91 102 108 109 106 104 100 92 83 81 82 82 77 70 64 59 55
62 17 10 12 8 9 11 8 7 6 6 3 4 6 8 13 16 18 10 22 41 45 51 54 52 56 63 53 51 36 20 13 22 32 43 59 73 84 97 105 105 101 96 95 94 86 82 82 84 81 75 69 66 62
18 9 12 7 6 9 8 6 9 9 7 10 6 7 8 10 7 8 8 17 47 49 52 51 50 59 74 70 54 40 25 22 27 37 45 53 63 77 86 94 99 98 94 97 97 93 89 86 87 86 82 76 72 69
7 12 16 18 21 12 15 9 11 14 8 8 11 13 9 7 11 11 8 41 59 57 59 66 62 67 77 81 65 58 50 33 32 37 45 56 63 71 89 98 101 102 99 92 91 92 90 88 87 88 87 82 77 73
8 11 18 18 17 13 9 12 10 6 9 10 7 7 5 11 11 10 9 47 31 36 63 58 67 72 72 70 67 58 52 50 31 26 34 47 49 58 70 90 105 104 98 96 90 88 88 89 89 89 90 88 84 81
7 19 14 29 16 15 6 2 4 7 9 15 10 8 10 8 8 8 24 75 79 63 45 52 68 68 72 71 67 54 48 44 42 39 34 38 57 63 65 65 75 91 89 91 88 83 82 83 86 89 91 93 91 87
9 16 22 10 9 11 17 17 13 15 20 27 10 16 18 34 62 99 103 92 91 91 71 45 60 71 72 76 78 76 67 56 55 54 53 52 57 64 65 64 63 70 77 81 79 76 74 76 78 80 81 83 87 87
14 31 15 14 12 12 19 23 17 26 34 43 48 56 80 104 107 105 106 107 101 92 66 50 54 68 79 78 74 70 69 66 62 58 52 54 56 54 59 63 65 63 63 65 69 72 72 72 71 73 74 74 72 71
15 31 12 17 12 32 46 50 57 63 65 73 74 67 77 85 117 120 91 69 58 61 57 51 59 67 73 82 83 82 83 80 73 67 59 45 39 45 53 54 57 57 56 57 59 61 63 68 71 72 73 73 72 70
28 29 17 7 17 50 47 47 50 50 58 57 63 64 69 57 54 65 48 31 42 51 53 53 63 69 68 72 76 76 76 72 68 63 57 47 41 36 42 50 55 56 54 53 52 53 53 56 61 64 64 63 61 60
39 39 42 30 15 12 22 24 13 16 29 41 59 65 59 45 24 36 36 33 28 31 38 46 48 47 47 54 63 69 64 55 51 49 49 43 39 37 41 46 55 55 54 52 50 49 49 48 48 49 49 47 44 43
Wind_Direction_850mb
263 254 260 248 250 257 259 265 270 267 261 267 283 300 321 335 336 346 1 326 329 298 296 291 304 312 317 300 109 145 84 4 51 69 114 176 123 201 93 183 171 150 131 183 85 71 331 26 68 335 163 71 108 93
263 246 244 243 245 251 256 262 263 269 256 261 275 293 313 329 332 337 345 345 310 276 286 299 295 308 306 266 268 168 164 160 157 93 87 118 111 84 140 196 28 55 168 158 152 199 248 83 105 106 130 109 112 120
261 243 243 242 242 248 255 261 262 263 258 256 270 286 306 320 328 332 336 340 334 294 303 296 301 336 303 204 197 206 160 153 145 116 145 145 105 125 145 228 104 355 123 91 88 5 76 101 103 108 108 100 116 110
243 232 243 244 241 245 252 259 261 260 257 253 263 281 299 312 321 328 328 325 308 301 285 298 286 324 281 225 215 217 283 158 138 124 95 108 115 174 182 150 127 179 113 120 68 103 92 100 114 125 105 106 107 105
224 238 245 244 241 241 248 254 257 259 255 251 257 277 294 305 318 327 327 332 268 276 309 293 292 33 181 224 177 183 185 173 150 94 69 110 127 111 46 92 88 175 160 142 198 173 121 139 141 128 114 113 113 111
230 238 243 242 242 240 244 249 253 257 254 250 254 272 289 302 320 337 337 19 350 308 303 310 303 324 113 173 155 145 162 155 119 102 104 109 121 115 99 116 267 161 163 133 134 152 135 141 136 129 120 120 114 107
232 237 241 242 241 241 240 246 250 253 250 247 254 267 283 299 312 324 299 297 301 285 281 286 296 314 146 160 142 132 130 125 112 105 91 131 122 124 101 141 156 148 140 139 139 136 125 143 135 138 129 125 120 112
232 237 241 243 241 240 237 242 246 247 244 244 255 268 283 293 300 303 295 292 285 268 276 284 275 301 168 139 120 128 124 118 68 104 119 114 121 89 100 142 149 144 143 142 146 151 142 142 139 140 136 135 126 118
232 236 239 241 240 236 235 237 238 237 236 239 256 279 293 288 287 301 298 277 264 231 296 285 295 238 173 108 109 106 113 63 109 103 140 127 356 195 177 148 148 152 150 151 146 142 144 143 145 145 145 143 134 129
230 233 236 236 236 231 231 229 226 220 216 233 261 276 268 288 302 288 294 234 211 209 227 257 270 266 182 135 88 111 60 131 128 243 136 95 228 247 172 161 158 157 156 155 145 147 152 151 155 156 152 144 133 129
230 231 235 233 231 226 224 218 209 201 199 217 226 244 280 303 300 286 272 231 189 224 208 247 244 279 211 128 149 167 164 129 138 242 133 188 275 186 166 163 162 164 162 165 166 160 162 157 156 156 157 151 143 133
228 229 232 231 227 222 219 209 204 199 189 193 235 279 292 264 258 274 250 226 226 228 203 217 229 215 225 197 122 173 123 79 224 146 100 226 236 169 168 169 169 169 169 171 169 163 163 163 159 157 155 149 144 136
225 227 228 229 222 217 211 203 205 197 197 192 224 260 319 109 238 231 220 239 216 227 328 270 237 184 197 191 100 119 138 214 131 110 219 224 167 169 171 171 172 172 173 170 167 166 166 166 165 165 157 152 144 138
222 226 228 224 218 211 202 200 195 192 164 212 202 279 170 220 239 229 0 342 321 314 325 323 263 194 171 134 143 145 174 118 170 234 232 204 172 170 175 176 176 176 175 171 167 171 172 172 169 172 166 159 151 143
221 223 221 218 208 200 197 192 191 188 148 216 191 221 208 236 281 319 326 324 337 340 340 331 253 251 172 140 181 116 130 231 212 226 227 182 173 173 176 180 181 178 176 173 171 176 177 175 176 175 173 169 164 160
211 215 214 200 195 194 189 189 192 176 188 218 220 250 239 294 279 139 358 336 340 337 325 221 242 269 208 152 143 203 162 219 244 218 225 176 172 178 180 183 183 180 177 176 177 180 179 180 182 178 176 178 177 175
202 213 202 194 190 188 188 180 167 139 189 232 237 234 244 273 259 276 320 329 337 347 320 313 221 231 130 150 196 179 205 213 223 232 199 184 180 180 183 184 182 181 179 179 180 184 182 182 184 184 183 182 181 181
212 205 206 191 185 170 157 163 151 183 210 229 235 242 235 242 219 241 282 305 313 330 328 330 305 256 216 158 220 227 242 245 258 274 201 186 182 183 185 185 183 182 181 181 184 187 187 186 190 190 186 185 186 186
208 200 196 195 187 153 126 151 155 184 218 221 242 250 256 265 272 278 282 288 281 278 274 268 249 241 238 220 210 220 236 249 234 209 189 189 186 186 186 187 185 184 184 184 186 192 193 193 194 192 190 192 192 193
203 215 195 179 155 136 121 134 176 194 202 220 227 235 237 257 279 290 289 250 247 210 214 228 247 242 256 261 279 289 291 266 224 174 178 185 190 189 189 189 187 187 188 189 191 194 196 198 201 199 198 200 197 198
171 174 157 153 139 118 133 158 171 200 202 225 241 224 250 266 268 269 257 239 211 229 211 245 270 265 283 300 289 283 275 256 241 230 203 187 192 194 192 193 192 190 191 191 193 197 201 202 201 202 203 204 205 206
168 169 152 156 118 124 130 175 160 167 208 232 233 214 241 250 253 250 242 197 223 224 224 246 263 268 275 292 287 322 315 256 229 223 206 193 185 190 194 195 193 193 195 196 197 201 204 205 205 207 206 207 209 210
161 153 131 109 127 149 147 177 180 199 183 212 200 228 230 229 246 253 216 208 219 231 242 252 265 270 266 266 283 314 324 264 222 221 209 199 195 194 196 198 198 198 197 200 202 204 208 208 208 210 210 210 212 213
157 126 109 140 146 158 159 164 204 235 219 217 185 252 245 237 254 231 229 207 220 232 238 245 250 245 250 252 253 268 302 273 225 221 210 199 195 195 200 201 202 205 206 204 203 206 211 213 211 212 214 214 216 217
111 144 146 127 151 115 155 182 195 197 228 203 228 257 257 247 242 230 220 231 232 237 240 236 237 226 233 240 246 247 255 259 236 220 213 212 207 198 199 204 206 208 209 206 207 209 210 213 214 214 215 217 219 221
129 168 166 161 162 168 188 188 203 203 183 203 232 240 257 244 215 240 236 234 234 233 232 227 227 227 227 233 239 242 239 251 236 229 224 217 216 213 206 202 205 207 210 212 214 212 213 216 217 217 218 220 222 225
134 191 181 172 171 171 203 237 221 181 186 205 236 218 204 243 232 223 48 25 339 267 235 230 224 223 225 226 229 240 238 237 245 252 243 229 231 229 225 217 212 214 211 210 213 215 218 218 220 221 222 224 226 229
140 159 153 174 180 191 173 188 181 217 218 229 222 190 281 228 238 334 314 324 329 332 315 248 230 225 225 228 224 222 221 217 218 223 230 230 229 228 229 228 228 224 219 218 217 217 220 223 225 226 227 227 229 232
158 169 163 160 151 188 211 199 214 221 242 259 260 277 279 277 294 303 303 305 308 311 308 287 242 228 229 229 229 228 230 224 215 210 216 217 215 220 226 225 224 223 223 222 222 224 226 226 226 230 234 237 238 239
190 174 170 169 158 212 224 220 240 255 267 270 271 272 275 279 287 296 297 295 291 290 287 284 255 238 229 224 224 224 225 229 234 228 227 234 235 226 217 220 219 220 219 219 220 221 223 224 226 228 232 236 240 244
192 184 206 209 222 239 244 255 267 274 278 278 275 264 267 287 293 290 289 282 280 275 261 247 232 226 227 227 224 220 220 223 227 232 236 243 245 235 219 213 213 212 212 212 214 219 222 223 223 224 227 231 235 239
191 201 196 196 245 261 265 263 266 270 269 267 265 268 275 278 279 288 286 280 252 247 229 219 216 219 221 225 228 229 231 233 232 231 230 228 231 231 220 212 207 204 203 206 209 213 216 220 224 227 231 235 240 244
210 218 228 238 246 240 264 267 272 275 268 268 270 264 256 246 247 257 275 274 264 236 220 211 207 212 221 224 221 221 225 227 229 233 228 218 214 216 212 210 206 201 201 202 204 207 211 217 222 225 230 236 242 246